This is the latest recevied weather packets stored in our database for station/object GW4003. If no packets are shown the sender has not sent any weather packets the latest 10 day(s).
| Time | Temp. | Humidity | Pressure | Rain* | Wind** | Luminosity | Snow |
|---|---|---|---|---|---|---|---|
| 1788283890 | 25.56° C | 41% | 1021.1 hPa | 0 mm | - | - | - |
| 1788283594 | 25° C | 43% | 1021.3 hPa | 0 mm | - | - | - |
| 1788283283 | 25° C | 44% | 1021.3 hPa | 0 mm | - | - | - |
| 1788282979 | 25° C | 45% | 1021.3 hPa | 0 mm | - | - | - |
| 1788282675 | 25° C | 46% | 1021.5 hPa | 0 mm | - | - | - |
| 1788282371 | 24.44° C | 45% | 1021.6 hPa | 0 mm | - | - | - |
| 1788282068 | 24.44° C | 46% | 1021.5 hPa | 0 mm | - | - | - |
| 1788281764 | 23.89° C | 49% | 1021.5 hPa | 0 mm | - | - | - |
| 1788281460 | 23.89° C | 50% | 1021.4 hPa | 0 mm | - | - | - |
| 1788281156 | 23.33° C | 51% | 1021.6 hPa | 0 mm | - | - | - |
| 1788280852 | 23.33° C | 54% | 1021.6 hPa | 0 mm | - | - | - |
| 1788280549 | 23.33° C | 53% | 1021.5 hPa | 0 mm | - | - | - |
| 1788280245 | 22.78° C | 54% | 1021.5 hPa | 0 mm | - | - | - |
| 1788279941 | 22.78° C | 54% | 1021.4 hPa | 0 mm | - | - | - |
| 1788279638 | 22.78° C | 56% | 1021.4 hPa | 0 mm | - | - | - |
| 1788279334 | 22.22° C | 57% | 1021.5 hPa | 0 mm | - | - | - |
| 1788279030 | 21.11° C | 62% | 1021.4 hPa | 0 mm | - | - | - |
| 1788278726 | 21.11° C | 65% | 1021.4 hPa | 0 mm | - | - | - |
| 1788278422 | 20.56° C | 69% | 1021.5 hPa | 0 mm | - | - | - |
| 1788278119 | 20° C | 71% | 1021.5 hPa | 0 mm | - | - | - |
| 1788277815 | 20° C | 71% | 1021.5 hPa | 0 mm | - | - | - |
| 1788277511 | 19.44° C | 73% | 1021.6 hPa | 0 mm | - | - | - |
| 1788277207 | 19.44° C | 74% | 1021.6 hPa | 0 mm | - | - | - |
| 1788276903 | 19.44° C | 75% | 1021.6 hPa | 0 mm | - | - | - |
| 1788276600 | 18.89° C | 75% | 1021.6 hPa | 0 mm | - | - | - |
* Rain latest hour (hover to see other rain measurements)
** Current wind speed in m/s (hover to see current wind gust speed)